星链-5655 (STARLINK-5655 )

导读 | 星芒AI

STARLINK-5655 是 SpaceX 星链计划中的一颗低轨通信卫星,属于第 17 批组网发射的星链卫星之一。该卫星运行在约 550 公里的轨道高度,旨在为全球用户提供高速互联网服务。作为星链星座的重要组成部分,STARLINK-5655 采用先进通信技术,支持宽带数据传输,提升偏远地区的网络覆盖。其设计寿命约为 5 年,具备自动避撞功能,以确保太空安全。

基本信息
目录编号:
55336
目录名称:
STARLINK-5655
国际标识:
2023-013F
轨道中心:
EARTH
卫星名称:
星链-5655
卫星全名:
星链-5655 (STARLINK-5655 )
卫星状态:
在轨 (已飞行1013 天)
发射日期:
2023-01-26 UTC
国别 :
美国 (US)
星等 :
--
轨道信息
数据来源 国际轨道数据
星历时间: 2025-11-04T05:33:07+0800
14小时前
查看轨道信息
半长轴: 6937.211km
偏心率: 0.000102
轨道倾角: 43.004°
近地点辐角 275.570°
升交点赤经 251.042°
平近点角 84.502°
近地点: 558.368km
远地点: 559.784km
周期: 95.838分钟
每日圈数: 15.025379
详细信息
固有亮度:
5
最大亮度:
2.5
卫星平台:
Starlink v1.5
覆盖范围:
全球
运营商:
太空探索技术公司
运营商所在国:
美国
制造商(研发单位):
太空探索技术公司
制造商所在国:
美国
使用方式:
暂无
卫星简介
星链(Starlink)计划是由太空探索技术公司(SpaceX)提出的一个巨型低轨卫星互联网星座项目,计划在2019年至2024年间在太空搭建由约1.2万颗卫星组成的“星链”网络,其中1584颗将部署在地球上空550千米处的近地轨道,并从2020年开始工作。该卫星仍在工作。
2D轨道图
3D轨道图
轨道高度分析图
轨道倾角分析图
轨道综合分析图
查看轨道综合分析图